Time,TemperatureF,DewpointF,PressureIn,WindDirection,WindDirectionDegrees,WindSpeedMPH,WindSpeedGustMPH,Humidity,HourlyPrecipIn,Conditions,Clouds,dailyrainin,SoftwareType,DateUTC
2013-02-06 00:00:00,35.0,33.2,30.02,WSW,247,3.5,3.5,93,0.00,CLR,SKC,0.00,WeatherDisplay:10.37,2013-02-06 05:00:00,
2013-02-06 00:05:00,35.0,32.9,30.02,WSW,247,3.5,3.5,92,0.00,CLR,SKC,0.00,WeatherDisplay:10.37,2013-02-06 05:05:00,
2013-02-06 00:10:00,35.0,33.2,30.03,WSW,247,3.5,3.5,93,0.00,CLR,SKC,0.00,WeatherDisplay:10.37,2013-02-06 05:10:00,
2013-02-06 00:15:00,35.0,33.4,30.03,WSW,247,2.3,2.3,94,0.00,CLR,SKC,0.00,WeatherDisplay:10.37,2013-02-06 05:15:00,
2013-02-06 00:20:00,35.0,33.2,30.03,WSW,247,2.3,2.3,93,0.00,CLR,SKC,0.00,WeatherDisplay:10.37,2013-02-06 05:20:00,
2013-02-06 00:25:00,35.0,32.9,30.03,WSW,247,3.5,3.5,92,0.00,CLR,SKC,0.00,WeatherDisplay:10.37,2013-02-06 05:25:00,
2013-02-06 00:30:00,35.0,33.2,30.03,WSW,247,3.5,3.5,93,0.00,CLR,SKC,0.00,WeatherDisplay:10.37,2013-02-06 05:30:00,
2013-02-06 00:35:00,35.0,33.2,30.03,WSW,247,1.1,1.1,93,0.00,CLR,SKC,0.00,WeatherDisplay:10.37,2013-02-06 05:35:00,
2013-02-06 00:40:00,35.0,33.2,30.03,WSW,247,3.5,3.5,93,0.00,CLR,SKC,0.00,WeatherDisplay:10.37,2013-02-06 05:40:00,
2013-02-06 00:45:00,35.0,33.4,30.03,WSW,247,3.5,3.5,94,0.00,CLR,SKC,0.00,WeatherDisplay:10.37,2013-02-06 05:45:00,
2013-02-06 00:50:00,35.0,33.4,30.04,WSW,247,3.5,3.5,94,0.00,CLR,SKC,0.00,WeatherDisplay:10.37,2013-02-06 05:50:00,
2013-02-06 00:55:00,35.0,33.7,30.04,WSW,247,3.5,3.5,95,0.00,CLR,SKC,0.00,WeatherDisplay:10.37,2013-02-06 05:55:00,
2013-02-06 01:00:00,35.0,33.7,30.04,WSW,247,2.3,0.0,95,0.00,CLR,SKC,0.00,WeatherDisplay:10.37,2013-02-06 06:00:00,
2013-02-06 01:05:00,35.0,33.4,30.04,WSW,247,3.5,3.5,94,0.00,CLR,SKC,0.00,WeatherDisplay:10.37,2013-02-06 06:05:00,
2013-02-06 01:10:00,35.0,33.7,30.04,WSW,247,3.5,3.5,95,0.00,CLR,SKC,0.00,WeatherDisplay:10.37,2013-02-06 06:10:00,
2013-02-06 01:15:00,35.0,33.7,30.04,WSW,247,3.5,3.5,95,0.00,CLR,SKC,0.00,WeatherDisplay:10.37,2013-02-06 06:15:00,
2013-02-06 01:20:00,35.0,33.4,30.04,WSW,247,0.0,0.0,94,0.00,CLR,SKC,0.00,WeatherDisplay:10.37,2013-02-06 06:20:00,
2013-02-06 01:25:00,35.0,33.7,30.04,WSW,247,3.5,3.5,95,0.00,CLR,SKC,0.00,WeatherDisplay:10.37,2013-02-06 06:25:00,
2013-02-06 01:30:00,35.0,33.7,30.04,WSW,247,3.5,3.5,95,0.00,CLR,SKC,0.00,WeatherDisplay:10.37,2013-02-06 06:30:00,
2013-02-06 01:35:00,35.0,33.4,30.04,WSW,247,0.0,0.0,94,0.00,CLR,SKC,0.00,WeatherDisplay:10.37,2013-02-06 06:35:00,
2013-02-06 01:40:00,35.0,33.7,30.04,WSW,247,3.5,3.5,95,0.00,CLR,SKC,0.00,WeatherDisplay:10.37,2013-02-06 06:40:00,
2013-02-06 01:45:00,35.0,33.4,30.04,WSW,247,3.5,3.5,94,0.00,CLR,SKC,0.00,WeatherDisplay:10.37,2013-02-06 06:45:00,
2013-02-06 01:50:00,35.0,33.4,30.04,WSW,247,2.3,2.3,94,0.00,CLR,SKC,0.00,WeatherDisplay:10.37,2013-02-06 06:50:00,
2013-02-06 01:55:00,35.0,33.7,30.04,WSW,247,3.5,3.5,95,0.00,CLR,SKC,0.00,WeatherDisplay:10.37,2013-02-06 06:55:00,
2013-02-06 02:00:00,35.0,33.4,30.04,WSW,247,3.5,3.5,94,0.00,CLR,SKC,0.00,WeatherDisplay:10.37,2013-02-06 07:00:00,
2013-02-06 02:05:00,35.0,33.4,30.04,WSW,247,3.5,3.5,94,0.00,CLR,SKC,0.00,WeatherDisplay:10.37,2013-02-06 07:05:00,
2013-02-06 02:10:00,35.0,33.7,30.04,WSW,247,3.5,3.5,95,0.00,CLR,SKC,0.00,WeatherDisplay:10.37,2013-02-06 07:10:00,
2013-02-06 02:15:00,35.0,33.7,30.04,WSW,247,3.5,3.5,95,0.00,CLR,SKC,0.00,WeatherDisplay:10.37,2013-02-06 07:15:00,
2013-02-06 02:20:00,34.0,33.0,30.04,WSW,247,0.0,0.0,96,0.00,CLR,SKC,0.00,WeatherDisplay:10.37,2013-02-06 07:20:00,
2013-02-06 02:25:00,34.0,33.2,30.04,WSW,247,0.0,0.0,97,0.00,CLR,SKC,0.00,WeatherDisplay:10.37,2013-02-06 07:25:00,
2013-02-06 02:30:00,35.0,34.0,30.04,WSW,247,0.0,0.0,96,0.00,CLR,SKC,0.00,WeatherDisplay:10.37,2013-02-06 07:30:00,
2013-02-06 02:35:00,35.0,34.0,30.04,WSW,247,2.0,2.0,96,0.00,CLR,SKC,0.00,WeatherDisplay:10.37,2013-02-06 07:35:00,
2013-02-06 02:40:00,35.0,34.0,30.04,WSW,247,2.3,2.3,96,0.00,CLR,SKC,0.00,WeatherDisplay:10.37,2013-02-06 07:40:00,
2013-02-06 02:45:00,35.0,33.7,30.04,WSW,247,3.5,3.5,95,0.00,CLR,SKC,0.00,WeatherDisplay:10.37,2013-02-06 07:45:00,
2013-02-06 02:50:00,35.0,33.7,30.04,WSW,247,3.5,3.5,95,0.00,CLR,SKC,0.00,WeatherDisplay:10.37,2013-02-06 07:50:00,
2013-02-06 02:55:00,35.0,33.7,30.04,WSW,247,3.5,3.5,95,0.00,CLR,SKC,0.00,WeatherDisplay:10.37,2013-02-06 07:55:00,
2013-02-06 03:00:00,35.0,33.7,30.04,WSW,247,3.5,3.5,95,0.00,CLR,SKC,0.00,WeatherDisplay:10.37,2013-02-06 08:00:00,
2013-02-06 03:05:00,34.0,33.0,30.04,WSW,247,2.3,2.3,96,0.00,CLR,SKC,0.00,WeatherDisplay:10.37,2013-02-06 08:05:00,
2013-02-06 03:10:00,34.0,33.2,30.04,WSW,247,3.5,3.5,97,0.00,CLR,SKC,0.00,WeatherDisplay:10.37,2013-02-06 08:10:00,
2013-02-06 03:15:00,33.0,32.5,30.04,WSW,247,3.5,3.5,98,0.00,CLR,SKC,0.00,WeatherDisplay:10.37,2013-02-06 08:15:00,
2013-02-06 03:20:00,33.0,32.5,30.05,WSW,247,3.5,3.5,98,0.00,CLR,SKC,0.00,WeatherDisplay:10.37,2013-02-06 08:20:00,
2013-02-06 03:25:00,32.0,31.5,30.05,WSW,247,2.3,2.3,98,0.00,CLR,SKC,0.00,WeatherDisplay:10.37,2013-02-06 08:25:00,
2013-02-06 03:30:00,32.0,32.0,30.05,WSW,247,3.5,3.5,100,0.00,,SKC,0.00,WeatherDisplay:10.37,2013-02-06 08:30:00,
2013-02-06 03:35:00,32.0,31.8,30.05,WSW,247,3.0,3.0,99,0.00,,SKC,0.00,WeatherDisplay:10.37,2013-02-06 08:35:00,
2013-02-06 03:40:00,32.0,32.0,30.06,WSW,247,3.5,3.5,100,0.00,,SKC,0.00,WeatherDisplay:10.37,2013-02-06 08:40:00,
2013-02-06 03:45:00,32.0,32.0,30.06,WSW,247,3.5,3.5,100,0.00,,SKC,0.00,WeatherDisplay:10.37,2013-02-06 08:45:00,
2013-02-06 03:50:00,32.0,32.0,30.06,WSW,247,3.5,3.5,100,0.00,,SKC,0.00,WeatherDisplay:10.37,2013-02-06 08:50:00,
2013-02-06 03:55:00,32.0,32.0,30.06,WSW,247,3.5,3.5,100,0.00,,SKC,0.00,WeatherDisplay:10.37,2013-02-06 08:55:00,
2013-02-06 04:00:00,32.0,32.0,30.06,WSW,247,3.5,3.5,100,0.00,,SKC,0.00,WeatherDisplay:10.37,2013-02-06 09:00:00,
2013-02-06 04:05:00,32.0,32.0,30.06,WSW,247,3.5,3.5,100,0.00,,SKC,0.00,WeatherDisplay:10.37,2013-02-06 09:05:00,
2013-02-06 04:10:00,32.0,32.0,30.07,WSW,247,3.5,3.5,100,0.00,,SKC,0.00,WeatherDisplay:10.37,2013-02-06 09:10:00,
2013-02-06 04:15:00,32.0,32.0,30.07,WSW,247,3.5,3.5,100,0.00,,SKC,0.00,WeatherDisplay:10.37,2013-02-06 09:15:00,
2013-02-06 04:20:00,32.0,32.0,30.07,WSW,247,2.3,2.3,100,0.00,,SKC,0.00,WeatherDisplay:10.37,2013-02-06 09:20:00,
2013-02-06 04:25:00,32.0,32.0,30.07,WSW,247,3.5,3.5,100,0.00,,SKC,0.00,WeatherDisplay:10.37,2013-02-06 09:25:00,
2013-02-06 04:30:00,32.0,32.0,30.07,WSW,247,2.3,2.3,100,0.00,,SKC,0.00,WeatherDisplay:10.37,2013-02-06 09:30:00,
2013-02-06 04:35:00,32.0,32.0,30.07,WSW,247,3.5,3.5,100,0.00,,SKC,0.00,WeatherDisplay:10.37,2013-02-06 09:35:00,
2013-02-06 04:40:00,32.0,32.0,30.08,WSW,247,0.0,0.2,100,0.00,,SKC,0.00,WeatherDisplay:10.37,2013-02-06 09:40:00,
2013-02-06 04:45:00,32.0,32.0,30.08,WSW,247,1.1,0.0,100,0.00,,SKC,0.00,WeatherDisplay:10.37,2013-02-06 09:45:00,
2013-02-06 04:50:00,32.0,32.0,30.08,WSW,247,3.0,3.0,100,0.00,,SKC,0.00,WeatherDisplay:10.37,2013-02-06 09:50:00,
2013-02-06 04:55:00,33.0,33.0,30.08,SSW,202,3.5,3.5,100,0.00,,SKC,0.00,WeatherDisplay:10.37,2013-02-06 09:55:00,
2013-02-06 05:00:00,32.0,32.0,30.08,SSW,202,0.0,0.0,100,0.00,,SKC,0.00,WeatherDisplay:10.37,2013-02-06 10:00:00,
2013-02-06 05:05:00,32.0,32.0,30.08,SSW,202,0.0,0.0,100,0.00,,SKC,0.00,WeatherDisplay:10.37,2013-02-06 10:05:00,
2013-02-06 05:10:00,32.0,32.0,30.09,SSW,202,4.0,4.0,100,0.00,,SKC,0.00,WeatherDisplay:10.37,2013-02-06 10:10:00,
2013-02-06 05:15:00,32.0,32.0,30.09,SSW,202,0.0,0.0,100,0.00,,SKC,0.00,WeatherDisplay:10.37,2013-02-06 10:15:00,
2013-02-06 05:20:00,32.0,32.0,30.09,SSW,202,3.0,3.0,100,0.00,,SKC,0.00,WeatherDisplay:10.37,2013-02-06 10:20:00,
2013-02-06 05:25:00,32.0,32.0,30.09,SSW,202,2.3,2.3,100,0.00,,SKC,0.00,WeatherDisplay:10.37,2013-02-06 10:25:00,
2013-02-06 05:30:00,32.0,32.0,30.10,SSW,202,1.1,1.1,100,0.00,,SKC,0.00,WeatherDisplay:10.37,2013-02-06 10:30:00,
2013-02-06 05:35:00,31.0,31.0,30.10,SSW,202,0.0,0.0,100,0.00,,SKC,0.00,WeatherDisplay:10.37,2013-02-06 10:35:00,
2013-02-06 05:40:00,32.0,32.0,30.11,SSW,202,0.0,0.0,100,0.00,,SKC,0.00,WeatherDisplay:10.37,2013-02-06 10:40:00,
2013-02-06 05:45:00,32.0,32.0,30.11,SSW,202,1.0,0.0,100,0.00,,SKC,0.00,WeatherDisplay:10.37,2013-02-06 10:45:00,
2013-02-06 05:50:00,32.0,32.0,30.11,SSW,202,0.0,0.0,100,0.00,,SKC,0.00,WeatherDisplay:10.37,2013-02-06 10:50:00,
2013-02-06 05:55:00,32.0,32.0,30.11,SSW,202,0.0,0.0,100,0.00,,SKC,0.00,WeatherDisplay:10.37,2013-02-06 10:55:00,
2013-02-06 06:00:00,32.0,32.0,30.11,SSW,202,0.0,0.0,100,0.00,,SKC,0.00,WeatherDisplay:10.37,2013-02-06 11:00:00,
2013-02-06 06:05:00,33.0,33.0,30.11,WSW,247,3.5,3.5,100,0.00,,SKC,0.00,WeatherDisplay:10.37,2013-02-06 11:05:00,
2013-02-06 06:10:00,34.0,34.0,30.12,WSW,247,4.0,4.0,100,0.00,,SKC,0.00,WeatherDisplay:10.37,2013-02-06 11:10:00,
2013-02-06 06:15:00,34.0,34.0,30.12,WSW,247,1.1,0.0,100,0.00,,SKC,0.00,WeatherDisplay:10.37,2013-02-06 11:15:00,
2013-02-06 06:20:00,34.0,34.0,30.12,WSW,247,3.5,3.5,100,0.00,,SKC,0.00,WeatherDisplay:10.37,2013-02-06 11:20:00,
2013-02-06 06:25:00,34.0,34.0,30.12,WSW,247,0.0,0.0,100,0.00,,SKC,0.00,WeatherDisplay:10.37,2013-02-06 11:25:00,
2013-02-06 06:30:00,34.0,33.7,30.13,WSW,247,0.0,0.0,99,0.00,CLR,SKC,0.00,WeatherDisplay:10.37,2013-02-06 11:30:00,
2013-02-06 06:35:00,34.0,34.0,30.13,WSW,247,2.3,2.3,100,0.00,,SKC,0.00,WeatherDisplay:10.37,2013-02-06 11:35:00,
2013-02-06 06:40:00,34.0,34.0,30.13,WSW,247,3.5,3.5,100,0.00,,SKC,0.00,WeatherDisplay:10.37,2013-02-06 11:40:00,
2013-02-06 06:45:00,34.0,34.0,30.13,WSW,247,3.5,3.5,100,0.00,,SKC,0.00,WeatherDisplay:10.37,2013-02-06 11:45:00,
2013-02-06 06:50:00,34.0,34.0,30.14,WSW,247,3.5,3.5,100,0.00,,SKC,0.00,WeatherDisplay:10.37,2013-02-06 11:50:00,
2013-02-06 06:55:00,33.0,32.8,30.14,WSW,247,2.3,2.3,99,0.00,,SKC,0.00,WeatherDisplay:10.37,2013-02-06 11:55:00,
2013-02-06 07:00:00,33.0,33.0,30.15,WSW,247,0.0,0.0,100,0.00,,SKC,0.00,WeatherDisplay:10.37,2013-02-06 12:00:00,
2013-02-06 07:05:00,33.0,33.0,30.15,WSW,247,1.1,1.1,100,0.00,,SKC,0.00,WeatherDisplay:10.37,2013-02-06 12:05:00,
2013-02-06 07:10:00,33.0,33.0,30.15,WSW,247,2.3,2.3,100,0.00,,SKC,0.00,WeatherDisplay:10.37,2013-02-06 12:10:00,
2013-02-06 07:15:00,33.0,33.0,30.15,WSW,247,0.0,0.0,100,0.00,,SKC,0.00,WeatherDisplay:10.37,2013-02-06 12:15:00,
2013-02-06 07:20:00,33.0,33.0,30.16,WSW,247,0.0,0.0,100,0.00,,SKC,0.00,WeatherDisplay:10.37,2013-02-06 12:20:00,
2013-02-06 07:25:00,33.0,33.0,30.16,WSW,247,0.0,0.0,100,0.00,,SKC,0.00,WeatherDisplay:10.37,2013-02-06 12:25:00,
2013-02-06 07:30:00,33.0,33.0,30.16,WSW,247,0.0,0.0,100,0.00,,SKC,0.00,WeatherDisplay:10.37,2013-02-06 12:30:00,
2013-02-06 07:35:00,33.0,33.0,30.16,WSW,247,0.0,0.0,100,0.00,,SKC,0.00,WeatherDisplay:10.37,2013-02-06 12:35:00,
2013-02-06 07:40:00,33.0,33.0,30.17,WSW,247,0.0,0.0,100,0.00,,SKC,0.00,WeatherDisplay:10.37,2013-02-06 12:40:00,
2013-02-06 07:45:00,34.0,34.0,30.17,WSW,247,2.3,2.3,100,0.00,,SKC,0.00,WeatherDisplay:10.37,2013-02-06 12:45:00,
2013-02-06 07:50:00,35.0,35.0,30.17,WSW,247,3.5,3.5,100,0.00,,SKC,0.00,WeatherDisplay:10.37,2013-02-06 12:50:00,
2013-02-06 07:55:00,35.0,35.0,30.17,WSW,247,3.5,3.5,100,0.00,,SKC,0.00,WeatherDisplay:10.37,2013-02-06 12:55:00,
2013-02-06 08:00:00,36.0,36.0,30.16,WSW,247,2.3,2.3,100,0.00,,SKC,0.00,WeatherDisplay:10.37,2013-02-06 13:00:00,
2013-02-06 08:05:00,38.0,37.5,30.16,WSW,247,3.5,3.5,98,0.00,CLR,SKC,0.00,WeatherDisplay:10.37,2013-02-06 13:05:00,
2013-02-06 08:10:00,39.0,37.7,30.15,WSW,247,3.5,3.5,95,0.00,CLR,SKC,0.00,WeatherDisplay:10.37,2013-02-06 13:10:00,
2013-02-06 08:15:00,40.0,38.1,30.15,WSW,247,3.5,3.5,93,0.00,CLR,SKC,0.00,WeatherDisplay:10.37,2013-02-06 13:15:00,
2013-02-06 08:20:00,42.0,38.4,30.13,West,270,5.0,5.0,87,0.00,CLR,SKC,0.00,WeatherDisplay:10.37,2013-02-06 13:20:00,
2013-02-06 08:25:00,44.0,37.6,30.13,West,270,6.0,6.0,78,0.00,CLR,SKC,0.00,WeatherDisplay:10.37,2013-02-06 13:25:00,
2013-02-06 08:30:00,46.0,37.1,30.12,West,270,6.9,6.9,71,0.00,CLR,SKC,0.00,WeatherDisplay:10.37,2013-02-06 13:30:00,
2013-02-06 08:35:00,47.0,36.6,30.12,West,270,9.2,9.2,67,0.00,CLR,SKC,0.00,WeatherDisplay:10.37,2013-02-06 13:35:00,
2013-02-06 08:40:00,47.0,36.2,30.11,West,270,9.2,9.2,66,0.00,CLR,SKC,0.00,WeatherDisplay:10.37,2013-02-06 13:40:00,
2013-02-06 08:45:00,48.0,37.9,30.11,West,270,6.0,6.0,68,0.00,CLR,SKC,0.00,WeatherDisplay:10.37,2013-02-06 13:45:00,
2013-02-06 08:50:00,48.0,36.8,30.11,West,270,5.8,5.8,65,0.00,CLR,SKC,0.00,WeatherDisplay:10.37,2013-02-06 13:50:00,
2013-02-06 08:55:00,48.0,36.8,30.11,West,270,8.1,8.1,65,0.00,CLR,SKC,0.00,WeatherDisplay:10.37,2013-02-06 13:55:00,
2013-02-06 09:00:00,48.0,36.4,30.11,WNW,292,6.9,6.9,64,0.00,CLR,SKC,0.00,WeatherDisplay:10.37,2013-02-06 14:00:00,
2013-02-06 09:05:00,48.0,36.0,30.11,WNW,292,10.4,10.4,63,0.00,CLR,SKC,0.00,WeatherDisplay:10.37,2013-02-06 14:05:00,
2013-02-06 09:10:00,49.0,36.5,30.10,WNW,292,9.2,9.2,62,0.00,CLR,SKC,0.00,WeatherDisplay:10.37,2013-02-06 14:10:00,
2013-02-06 09:15:00,49.0,36.5,30.10,West,270,7.0,7.0,62,0.00,CLR,SKC,0.00,WeatherDisplay:10.37,2013-02-06 14:15:00,
2013-02-06 09:20:00,49.0,35.7,30.11,North,360,10.4,10.4,60,0.00,CLR,SKC,0.00,WeatherDisplay:10.37,2013-02-06 14:20:00,
2013-02-06 09:25:00,50.0,36.7,30.11,NW,315,11.5,11.5,60,0.00,CLR,SKC,0.00,WeatherDisplay:10.37,2013-02-06 14:25:00,
2013-02-06 09:30:00,50.0,36.7,30.10,West,270,9.2,9.2,60,0.00,CLR,SKC,0.00,WeatherDisplay:10.37,2013-02-06 14:30:00,
2013-02-06 09:35:00,50.0,35.8,30.10,West,270,10.0,10.0,58,0.00,CLR,SKC,0.00,WeatherDisplay:10.37,2013-02-06 14:35:00,
2013-02-06 09:40:00,50.0,35.8,30.11,WSW,247,10.4,10.4,58,0.00,CLR,SKC,0.00,WeatherDisplay:10.37,2013-02-06 14:40:00,
2013-02-06 09:45:00,50.0,35.8,30.11,West,270,9.2,9.2,58,0.00,CLR,SKC,0.00,WeatherDisplay:10.37,2013-02-06 14:45:00,
2013-02-06 09:50:00,51.0,35.4,30.10,West,270,9.2,9.2,55,0.00,CLR,SKC,0.00,WeatherDisplay:10.37,2013-02-06 14:50:00,
2013-02-06 09:55:00,51.0,36.3,30.10,WSW,247,5.8,5.8,57,0.00,CLR,SKC,0.00,WeatherDisplay:10.37,2013-02-06 14:55:00,
2013-02-06 10:00:00,52.0,36.3,30.11,West,270,6.0,6.0,55,0.00,CLR,SKC,0.00,WeatherDisplay:10.37,2013-02-06 15:00:00,
2013-02-06 10:05:00,52.0,35.4,30.11,NW,315,10.4,10.4,53,0.00,CLR,SKC,0.00,WeatherDisplay:10.37,2013-02-06 15:05:00,
2013-02-06 10:10:00,52.0,34.9,30.10,NW,315,5.8,5.8,52,0.00,CLR,SKC,0.00,WeatherDisplay:10.37,2013-02-06 15:10:00,
2013-02-06 10:15:00,52.0,34.9,30.10,West,270,9.2,9.2,52,0.00,CLR,SKC,0.00,WeatherDisplay:10.37,2013-02-06 15:15:00,
2013-02-06 10:20:00,53.0,35.8,30.10,West,270,8.1,8.1,52,0.00,CLR,SKC,0.00,WeatherDisplay:10.37,2013-02-06 15:20:00,
2013-02-06 10:25:00,53.0,35.3,30.10,WNW,292,6.9,6.9,51,0.00,CLR,SKC,0.00,WeatherDisplay:10.37,2013-02-06 15:25:00,
2013-02-06 10:30:00,53.0,35.3,30.10,WNW,292,9.2,9.2,51,0.00,CLR,SKC,0.00,WeatherDisplay:10.37,2013-02-06 15:30:00,
2013-02-06 10:35:00,54.0,35.3,30.10,NNW,337,9.0,9.0,49,0.00,CLR,SKC,0.00,WeatherDisplay:10.37,2013-02-06 15:35:00,
2013-02-06 10:40:00,54.0,35.8,30.11,NW,315,5.8,5.8,50,0.00,CLR,SKC,0.00,WeatherDisplay:10.37,2013-02-06 15:40:00,
2013-02-06 10:45:00,55.0,35.7,30.11,NW,315,6.9,6.9,48,0.00,CLR,SKC,0.00,WeatherDisplay:10.37,2013-02-06 15:45:00,
2013-02-06 10:50:00,55.0,35.7,30.10,WNW,292,8.1,8.1,48,0.00,CLR,SKC,0.00,WeatherDisplay:10.37,2013-02-06 15:50:00,
2013-02-06 10:55:00,55.0,35.7,30.10,NNW,337,6.9,6.9,48,0.00,CLR,SKC,0.00,WeatherDisplay:10.37,2013-02-06 15:55:00,
2013-02-06 11:00:00,55.0,35.1,30.10,WNW,292,5.8,5.8,47,0.00,CLR,SKC,0.00,WeatherDisplay:10.37,2013-02-06 16:00:00,
2013-02-06 11:05:00,56.0,35.5,30.10,NNE,22,8.1,8.1,46,0.00,CLR,SKC,0.00,WeatherDisplay:10.37,2013-02-06 16:05:00,
2013-02-06 11:10:00,56.0,34.4,30.10,WNW,292,8.1,8.1,44,0.00,CLR,SKC,0.00,WeatherDisplay:10.37,2013-02-06 16:10:00,
2013-02-06 11:15:00,56.0,34.4,30.10,WNW,292,6.0,6.0,44,0.00,CLR,SKC,0.00,WeatherDisplay:10.37,2013-02-06 16:15:00,
2013-02-06 11:20:00,56.0,34.4,30.10,North,360,5.8,5.8,44,0.00,CLR,SKC,0.00,WeatherDisplay:10.37,2013-02-06 16:20:00,
2013-02-06 11:25:00,56.0,34.4,30.10,NNE,22,10.4,10.4,44,0.00,CLR,SKC,0.00,WeatherDisplay:10.37,2013-02-06 16:25:00,
2013-02-06 11:30:00,56.0,34.4,30.10,NNW,337,8.1,8.1,44,0.00,CLR,SKC,0.00,WeatherDisplay:10.37,2013-02-06 16:30:00,
2013-02-06 11:35:00,56.0,33.8,30.10,North,360,11.5,11.5,43,0.00,CLR,SKC,0.00,WeatherDisplay:10.37,2013-02-06 16:35:00,
2013-02-06 11:40:00,56.0,32.0,30.10,West,270,10.4,10.4,40,0.00,CLR,SKC,0.00,WeatherDisplay:10.37,2013-02-06 16:40:00,
2013-02-06 11:45:00,56.0,32.6,30.10,West,270,10.4,10.4,41,0.00,CLR,SKC,0.00,WeatherDisplay:10.37,2013-02-06 16:45:00,
2013-02-06 11:50:00,57.0,33.5,30.09,WNW,292,5.8,5.8,41,0.00,CLR,SKC,0.00,WeatherDisplay:10.37,2013-02-06 16:50:00,
2013-02-06 11:55:00,57.0,33.5,30.09,NE,45,10.4,10.4,41,0.00,CLR,SKC,0.00,WeatherDisplay:10.37,2013-02-06 16:55:00,
2013-02-06 12:00:00,57.0,32.9,30.09,WNW,292,8.1,8.1,40,0.00,CLR,SKC,0.00,WeatherDisplay:10.37,2013-02-06 17:00:00,
2013-02-06 12:05:00,58.0,32.5,30.09,West,270,10.0,10.0,38,0.00,CLR,SKC,0.00,WeatherDisplay:10.37,2013-02-06 17:05:00,
2013-02-06 12:10:00,57.0,32.3,30.08,WNW,292,9.2,9.2,39,0.00,CLR,SKC,0.00,WeatherDisplay:10.37,2013-02-06 17:10:00,
2013-02-06 12:15:00,58.0,34.4,30.08,West,270,4.0,4.0,41,0.00,CLR,SKC,0.00,WeatherDisplay:10.37,2013-02-06 17:15:00,
2013-02-06 12:20:00,58.0,32.5,30.08,West,270,10.4,10.4,38,0.00,CLR,SKC,0.00,WeatherDisplay:10.37,2013-02-06 17:20:00,
2013-02-06 12:25:00,57.0,30.3,30.08,WNW,292,10.4,10.4,36,0.00,CLR,SKC,0.00,WeatherDisplay:10.37,2013-02-06 17:25:00,
2013-02-06 12:30:00,57.0,31.0,30.08,WSW,247,10.4,10.4,37,0.00,CLR,SKC,0.00,WeatherDisplay:10.37,2013-02-06 17:30:00,
2013-02-06 12:35:00,58.0,32.5,30.08,West,270,8.1,8.1,38,0.00,CLR,SKC,0.00,WeatherDisplay:10.37,2013-02-06 17:35:00,
2013-02-06 12:40:00,58.0,31.8,30.08,West,270,6.0,6.0,37,0.00,CLR,SKC,0.00,WeatherDisplay:10.37,2013-02-06 17:40:00,
2013-02-06 12:45:00,58.0,31.2,30.08,West,270,8.1,8.1,36,0.00,CLR,SKC,0.00,WeatherDisplay:10.37,2013-02-06 17:45:00,
2013-02-06 12:50:00,58.0,30.5,30.07,West,270,10.4,10.4,35,0.00,CLR,SKC,0.00,WeatherDisplay:10.37,2013-02-06 17:50:00,
2013-02-06 12:55:00,58.0,29.8,30.07,WNW,292,9.2,9.2,34,0.00,CLR,SKC,0.00,WeatherDisplay:10.37,2013-02-06 17:55:00,
2013-02-06 13:00:00,58.0,29.0,30.07,WSW,247,11.5,11.5,33,0.00,CLR,SKC,0.00,WeatherDisplay:10.37,2013-02-06 18:00:00,
2013-02-06 13:05:00,59.0,29.9,30.07,WNW,292,4.6,4.6,33,0.00,CLR,SKC,0.00,WeatherDisplay:10.37,2013-02-06 18:05:00,
2013-02-06 13:10:00,59.0,29.9,30.07,WNW,292,11.5,11.5,33,0.00,CLR,SKC,0.00,WeatherDisplay:10.37,2013-02-06 18:10:00,
2013-02-06 13:15:00,58.0,29.0,30.07,West,270,10.4,10.4,33,0.00,CLR,SKC,0.00,WeatherDisplay:10.37,2013-02-06 18:15:00,
2013-02-06 13:20:00,59.0,29.9,30.06,NW,315,6.9,6.9,33,0.00,CLR,SKC,0.00,WeatherDisplay:10.37,2013-02-06 18:20:00,
2013-02-06 13:25:00,59.0,29.2,30.06,WNW,292,8.1,8.1,32,0.00,CLR,SKC,0.00,WeatherDisplay:10.37,2013-02-06 18:25:00,
2013-02-06 13:30:00,59.0,29.9,30.06,WSW,247,11.5,11.5,33,0.00,CLR,SKC,0.00,WeatherDisplay:10.37,2013-02-06 18:30:00,
2013-02-06 13:35:00,59.0,28.4,30.06,West,270,11.5,11.5,31,0.00,CLR,SKC,0.00,WeatherDisplay:10.37,2013-02-06 18:35:00,
2013-02-06 13:40:00,59.0,29.2,30.06,West,270,10.0,10.0,32,0.00,CLR,SKC,0.00,WeatherDisplay:10.37,2013-02-06 18:40:00,
2013-02-06 13:45:00,58.0,28.3,30.06,NNE,22,13.0,13.0,32,0.00,CLR,SKC,0.00,WeatherDisplay:10.37,2013-02-06 18:45:00,
2013-02-06 13:50:00,59.0,29.2,30.05,West,270,9.2,9.2,32,0.00,CLR,SKC,0.00,WeatherDisplay:10.37,2013-02-06 18:50:00,
2013-02-06 13:55:00,59.0,28.4,30.05,West,270,8.0,8.0,31,0.00,CLR,SKC,0.00,WeatherDisplay:10.37,2013-02-06 18:55:00,
2013-02-06 14:00:00,59.0,29.9,30.05,West,270,10.4,10.4,33,0.00,CLR,SKC,0.00,WeatherDisplay:10.37,2013-02-06 19:00:00,
2013-02-06 14:05:00,59.0,29.9,30.05,NE,45,6.9,6.9,33,0.00,CLR,SKC,0.00,WeatherDisplay:10.37,2013-02-06 19:05:00,
2013-02-06 14:10:00,59.0,26.8,30.05,West,270,10.4,10.4,29,0.00,CLR,SKC,0.00,WeatherDisplay:10.37,2013-02-06 19:10:00,
2013-02-06 14:15:00,59.0,28.4,30.05,WNW,292,4.6,4.6,31,0.00,CLR,SKC,0.00,WeatherDisplay:10.37,2013-02-06 19:15:00,
2013-02-06 14:20:00,60.0,30.0,30.05,WNW,292,6.0,6.0,32,0.00,CLR,SKC,0.00,WeatherDisplay:10.37,2013-02-06 19:20:00,
2013-02-06 14:25:00,60.0,27.6,30.05,NNE,22,6.9,6.9,29,0.00,CLR,SKC,0.00,WeatherDisplay:10.37,2013-02-06 19:25:00,
2013-02-06 14:30:00,59.0,28.4,30.05,North,360,8.0,8.0,31,0.00,CLR,SKC,0.00,WeatherDisplay:10.37,2013-02-06 19:30:00,
2013-02-06 14:35:00,59.0,28.4,30.05,North,360,9.2,9.2,31,0.00,CLR,SKC,0.00,WeatherDisplay:10.37,2013-02-06 19:35:00,
2013-02-06 14:40:00,59.0,29.2,30.05,NNE,22,5.8,5.8,32,0.00,CLR,SKC,0.00,WeatherDisplay:10.37,2013-02-06 19:40:00,
2013-02-06 14:45:00,59.0,28.4,30.05,West,270,10.4,10.4,31,0.00,CLR,SKC,0.00,WeatherDisplay:10.37,2013-02-06 19:45:00,
2013-02-06 14:50:00,59.0,28.4,30.05,NW,315,9.2,9.2,31,0.00,CLR,SKC,0.00,WeatherDisplay:10.37,2013-02-06 19:50:00,
2013-02-06 14:55:00,59.0,28.4,30.05,West,270,3.5,3.5,31,0.00,CLR,SKC,0.00,WeatherDisplay:10.37,2013-02-06 19:55:00,
2013-02-06 15:00:00,60.0,28.4,30.05,NNW,337,3.5,3.5,30,0.00,CLR,SKC,0.00,WeatherDisplay:10.37,2013-02-06 20:00:00,
2013-02-06 15:05:00,60.0,29.2,30.05,West,270,6.9,6.9,31,0.00,CLR,SKC,0.00,WeatherDisplay:10.37,2013-02-06 20:05:00,
2013-02-06 15:10:00,60.0,29.2,30.05,WSW,247,8.0,8.0,31,0.00,CLR,SKC,0.00,WeatherDisplay:10.37,2013-02-06 20:10:00,
2013-02-06 15:15:00,59.0,29.2,30.05,WSW,247,8.1,8.1,32,0.00,CLR,SKC,0.00,WeatherDisplay:10.37,2013-02-06 20:15:00,
2013-02-06 15:20:00,59.0,29.2,30.06,WSW,247,3.5,3.5,32,0.00,CLR,SKC,0.00,WeatherDisplay:10.37,2013-02-06 20:20:00,
2013-02-06 15:25:00,59.0,29.9,30.06,West,270,4.6,4.6,33,0.00,CLR,SKC,0.00,WeatherDisplay:10.37,2013-02-06 20:25:00,
2013-02-06 15:30:00,59.0,29.9,30.07,NNE,22,6.9,6.9,33,0.00,CLR,SKC,0.00,WeatherDisplay:10.37,2013-02-06 20:30:00,
2013-02-06 15:35:00,59.0,29.2,30.07,WSW,247,9.2,9.2,32,0.00,CLR,SKC,0.00,WeatherDisplay:10.37,2013-02-06 20:35:00,
2013-02-06 15:40:00,58.0,28.3,30.06,NNE,22,10.4,10.4,32,0.00,CLR,SKC,0.00,WeatherDisplay:10.37,2013-02-06 20:40:00,
2013-02-06 15:45:00,58.0,29.0,30.06,NNW,337,9.0,9.0,33,0.00,CLR,SKC,0.00,WeatherDisplay:10.37,2013-02-06 20:45:00,
2013-02-06 15:50:00,58.0,29.8,30.07,NNE,22,9.2,9.2,34,0.00,CLR,SKC,0.00,WeatherDisplay:10.37,2013-02-06 20:50:00,
2013-02-06 15:55:00,58.0,28.3,30.07,NNE,22,11.5,11.5,32,0.00,CLR,SKC,0.00,WeatherDisplay:10.37,2013-02-06 20:55:00,
2013-02-06 16:00:00,58.0,29.0,30.08,West,270,5.8,5.8,33,0.00,CLR,SKC,0.00,WeatherDisplay:10.37,2013-02-06 21:00:00,
2013-02-06 16:05:00,59.0,28.4,30.08,WNW,292,5.8,5.8,31,0.00,CLR,SKC,0.00,WeatherDisplay:10.37,2013-02-06 21:05:00,
2013-02-06 16:10:00,58.0,28.3,30.08,NW,315,5.8,5.8,32,0.00,CLR,SKC,0.00,WeatherDisplay:10.37,2013-02-06 21:10:00,
2013-02-06 16:15:00,57.0,27.4,30.08,West,270,5.8,5.8,32,0.00,CLR,SKC,0.00,WeatherDisplay:10.37,2013-02-06 21:15:00,
2013-02-06 16:20:00,57.0,27.4,30.09,North,360,5.8,5.8,32,0.00,CLR,SKC,0.00,WeatherDisplay:10.37,2013-02-06 21:20:00,
2013-02-06 16:25:00,57.0,27.4,30.09,NNE,22,4.6,4.6,32,0.00,CLR,SKC,0.00,WeatherDisplay:10.37,2013-02-06 21:25:00,
2013-02-06 16:30:00,56.0,27.3,30.10,North,360,4.0,4.0,33,0.00,CLR,SKC,0.00,WeatherDisplay:10.37,2013-02-06 21:30:00,
2013-02-06 16:35:00,56.0,25.8,30.10,West,270,6.0,6.0,31,0.00,CLR,SKC,0.00,WeatherDisplay:10.37,2013-02-06 21:35:00,
2013-02-06 16:40:00,56.0,26.5,30.11,NW,315,4.6,4.6,32,0.00,CLR,SKC,0.00,WeatherDisplay:10.37,2013-02-06 21:40:00,
2013-02-06 16:45:00,56.0,26.5,30.11,West,270,5.0,5.0,32,0.00,CLR,SKC,0.00,WeatherDisplay:10.37,2013-02-06 21:45:00,
2013-02-06 16:50:00,56.0,27.3,30.12,West,270,3.5,3.5,33,0.00,CLR,SKC,0.00,WeatherDisplay:10.37,2013-02-06 21:50:00,
2013-02-06 16:55:00,56.0,28.0,30.12,NNE,22,6.9,6.9,34,0.00,CLR,SKC,0.00,WeatherDisplay:10.37,2013-02-06 21:55:00,
2013-02-06 17:00:00,56.0,28.7,30.13,NNE,22,6.0,6.0,35,0.00,CLR,SKC,0.00,WeatherDisplay:10.37,2013-02-06 22:00:00,
2013-02-06 17:05:00,56.0,29.4,30.13,NNE,22,8.1,8.1,36,0.00,CLR,SKC,0.00,WeatherDisplay:10.37,2013-02-06 22:05:00,
2013-02-06 17:10:00,56.0,30.7,30.13,NNW,337,6.9,6.9,38,0.00,CLR,SKC,0.00,WeatherDisplay:10.37,2013-02-06 22:10:00,
2013-02-06 17:15:00,55.0,29.8,30.13,NNW,337,4.6,4.6,38,0.00,CLR,SKC,0.00,WeatherDisplay:10.37,2013-02-06 22:15:00,
2013-02-06 17:20:00,55.0,30.5,30.13,NNE,22,3.5,3.5,39,0.00,CLR,SKC,0.00,WeatherDisplay:10.37,2013-02-06 22:20:00,
2013-02-06 17:25:00,55.0,30.5,30.13,NNE,22,6.9,6.9,39,0.00,CLR,SKC,0.00,WeatherDisplay:10.37,2013-02-06 22:25:00,
2013-02-06 17:30:00,55.0,30.5,30.13,North,360,4.0,4.0,39,0.00,CLR,SKC,0.00,WeatherDisplay:10.37,2013-02-06 22:30:00,
2013-02-06 17:35:00,54.0,30.2,30.13,North,360,4.0,4.0,40,0.00,CLR,SKC,0.00,WeatherDisplay:10.37,2013-02-06 22:35:00,
2013-02-06 17:40:00,54.0,30.8,30.15,North,360,4.0,4.0,41,0.00,CLR,SKC,0.00,WeatherDisplay:10.37,2013-02-06 22:40:00,
2013-02-06 17:45:00,53.0,29.9,30.15,North,360,2.3,2.3,41,0.00,CLR,SKC,0.00,WeatherDisplay:10.37,2013-02-06 22:45:00,
2013-02-06 17:50:00,52.0,29.0,30.16,North,360,1.1,1.1,41,0.00,CLR,SKC,0.00,WeatherDisplay:10.37,2013-02-06 22:50:00,
2013-02-06 17:55:00,52.0,30.2,30.16,North,360,0.0,0.0,43,0.00,CLR,SKC,0.00,WeatherDisplay:10.37,2013-02-06 22:55:00,
2013-02-06 18:00:00,51.0,29.3,30.17,North,360,3.5,3.5,43,0.00,CLR,SKC,0.00,WeatherDisplay:10.37,2013-02-06 23:00:00,
2013-02-06 18:06:00,51.0,30.4,30.17,North,360,2.3,2.3,45,0.00,CLR,SKC,0.00,WeatherDisplay:10.37,2013-02-06 23:06:00,
2013-02-06 18:11:00,50.0,29.5,30.19,North,360,3.5,3.5,45,0.00,CLR,SKC,0.00,WeatherDisplay:10.37,2013-02-06 23:11:00,
2013-02-06 18:16:00,50.0,29.5,30.19,North,360,3.5,3.5,45,0.00,CLR,SKC,0.00,WeatherDisplay:10.37,2013-02-06 23:16:00,
2013-02-06 18:21:00,49.0,29.1,30.20,North,360,3.5,3.5,46,0.00,CLR,SKC,0.00,WeatherDisplay:10.37,2013-02-06 23:21:00,
2013-02-06 18:26:00,49.0,29.1,30.20,North,360,3.5,3.5,46,0.00,CLR,SKC,0.00,WeatherDisplay:10.37,2013-02-06 23:26:00,
2013-02-06 18:31:00,50.0,30.0,30.20,North,360,3.5,3.5,46,0.00,CLR,SKC,0.00,WeatherDisplay:10.37,2013-02-06 23:31:00,
2013-02-06 18:36:00,50.0,30.0,30.20,North,360,3.5,3.5,46,0.00,CLR,SKC,0.00,WeatherDisplay:10.37,2013-02-06 23:36:00,
2013-02-06 18:41:00,50.0,30.5,30.21,North,360,3.5,3.5,47,0.00,CLR,SKC,0.00,WeatherDisplay:10.37,2013-02-06 23:41:00,
2013-02-06 18:46:00,49.0,29.6,30.21,NNE,22,4.6,4.6,47,0.00,CLR,SKC,0.00,WeatherDisplay:10.37,2013-02-06 23:46:00,
2013-02-06 18:51:00,49.0,29.6,30.21,NNE,22,3.5,3.5,47,0.00,CLR,SKC,0.00,WeatherDisplay:10.37,2013-02-06 23:51:00,
2013-02-06 18:56:00,49.0,30.1,30.21,NNE,22,4.0,4.0,48,0.00,CLR,SKC,0.00,WeatherDisplay:10.37,2013-02-06 23:56:00,
2013-02-06 19:01:00,49.0,30.1,30.21,NE,45,5.0,5.0,48,0.00,CLR,SKC,0.00,WeatherDisplay:10.37,2013-02-07 00:01:00,
2013-02-06 19:06:00,48.0,29.2,30.21,NNE,22,4.0,4.0,48,0.00,CLR,SKC,0.00,WeatherDisplay:10.37,2013-02-07 00:06:00,
2013-02-06 19:11:00,48.0,29.2,30.21,NNE,22,3.5,3.5,48,0.00,CLR,SKC,0.00,WeatherDisplay:10.37,2013-02-07 00:11:00,
2013-02-06 19:16:00,48.0,29.7,30.21,NNE,22,0.0,0.0,49,0.00,CLR,SKC,0.00,WeatherDisplay:10.37,2013-02-07 00:16:00,
2013-02-06 19:21:00,47.0,29.3,30.23,NNE,22,2.3,2.3,50,0.00,CLR,SKC,0.00,WeatherDisplay:10.37,2013-02-07 00:21:00,
2013-02-06 19:26:00,47.0,29.3,30.23,NNE,22,3.5,3.5,50,0.00,CLR,SKC,0.00,WeatherDisplay:10.37,2013-02-07 00:26:00,
2013-02-06 19:31:00,47.0,29.3,30.23,NNE,22,3.5,3.5,50,0.00,CLR,SKC,0.00,WeatherDisplay:10.37,2013-02-07 00:31:00,
2013-02-06 19:36:00,47.0,29.3,30.23,NNE,22,2.3,2.3,50,0.00,CLR,SKC,0.00,WeatherDisplay:10.37,2013-02-07 00:36:00,
2013-02-06 19:41:00,47.0,29.8,30.24,NE,45,4.0,4.0,51,0.00,CLR,SKC,0.00,WeatherDisplay:10.37,2013-02-07 00:41:00,
2013-02-06 19:46:00,47.0,29.3,30.24,NE,45,4.0,4.0,50,0.00,CLR,SKC,0.00,WeatherDisplay:10.37,2013-02-07 00:46:00,
2013-02-06 19:51:00,47.0,29.8,30.24,NNE,22,5.0,5.0,51,0.00,CLR,SKC,0.00,WeatherDisplay:10.37,2013-02-07 00:51:00,
2013-02-06 19:56:00,47.0,29.8,30.24,NNE,22,5.8,5.8,51,0.00,CLR,SKC,0.00,WeatherDisplay:10.37,2013-02-07 00:56:00,
2013-02-06 20:01:00,46.0,28.9,30.24,NNE,22,4.0,4.0,51,0.00,CLR,SKC,0.00,WeatherDisplay:10.37,2013-02-07 01:01:00,
2013-02-06 20:06:00,46.0,29.3,30.24,NNE,22,3.5,3.5,52,0.00,CLR,SKC,0.00,WeatherDisplay:10.37,2013-02-07 01:06:00,
2013-02-06 20:11:00,46.0,29.3,30.25,NNE,22,4.0,4.0,52,0.00,CLR,SKC,0.00,WeatherDisplay:10.37,2013-02-07 01:11:00,
2013-02-06 20:16:00,46.0,29.3,30.25,NNE,22,4.0,4.0,52,0.00,CLR,SKC,0.00,WeatherDisplay:10.37,2013-02-07 01:16:00,
2013-02-06 20:21:00,46.0,29.3,30.25,NNE,22,3.5,3.5,52,0.00,CLR,SKC,0.00,WeatherDisplay:10.37,2013-02-07 01:21:00,
2013-02-06 20:26:00,46.0,29.3,30.25,NNE,22,4.0,4.0,52,0.00,CLR,SKC,0.00,WeatherDisplay:10.37,2013-02-07 01:26:00,
2013-02-06 20:31:00,46.0,29.3,30.25,NNE,22,5.8,5.8,52,0.00,CLR,SKC,0.00,WeatherDisplay:10.37,2013-02-07 01:31:00,
2013-02-06 20:36:00,46.0,29.3,30.25,NNE,22,5.8,5.8,52,0.00,CLR,SKC,0.00,WeatherDisplay:10.37,2013-02-07 01:36:00,
2013-02-06 20:41:00,46.0,29.8,30.25,NNE,22,5.8,5.8,53,0.00,CLR,SKC,0.00,WeatherDisplay:10.37,2013-02-07 01:41:00,
2013-02-06 20:46:00,45.0,28.9,30.25,NNE,22,4.0,4.1,53,0.00,CLR,SKC,0.00,WeatherDisplay:10.37,2013-02-07 01:46:00,
2013-02-06 20:51:00,45.0,28.9,30.26,NNE,22,3.5,3.7,53,0.00,CLR,SKC,0.00,WeatherDisplay:10.37,2013-02-07 01:51:00,
2013-02-06 20:56:00,45.0,28.9,30.26,NNE,22,4.6,4.6,53,0.00,CLR,SKC,0.00,WeatherDisplay:10.37,2013-02-07 01:56:00,
2013-02-06 21:01:00,44.0,28.0,30.27,NNE,22,4.0,4.3,53,0.00,CLR,SKC,0.00,WeatherDisplay:10.37,2013-02-07 02:01:00,
2013-02-06 21:06:00,45.0,28.9,30.27,NNE,22,5.8,5.8,53,0.00,CLR,SKC,0.00,WeatherDisplay:10.37,2013-02-07 02:06:00,
2013-02-06 21:11:00,44.0,28.9,30.27,NNE,22,4.6,4.6,55,0.00,CLR,SKC,0.00,WeatherDisplay:10.37,2013-02-07 02:11:00,
2013-02-06 21:16:00,44.0,28.9,30.27,NE,45,6.9,6.9,55,0.00,CLR,SKC,0.00,WeatherDisplay:10.37,2013-02-07 02:16:00,
2013-02-06 21:21:00,44.0,28.9,30.27,NNE,22,5.8,5.8,55,0.00,CLR,SKC,0.00,WeatherDisplay:10.37,2013-02-07 02:21:00,
2013-02-06 21:26:00,44.0,29.3,30.27,NE,45,7.0,7.0,56,0.00,CLR,SKC,0.00,WeatherDisplay:10.37,2013-02-07 02:26:00,
2013-02-06 21:31:00,44.0,29.3,30.27,NNE,22,6.9,6.9,56,0.00,CLR,SKC,0.00,WeatherDisplay:10.37,2013-02-07 02:31:00,
2013-02-06 21:36:00,43.0,27.9,30.27,NNE,22,6.0,6.0,55,0.00,CLR,SKC,0.00,WeatherDisplay:10.37,2013-02-07 02:36:00,
2013-02-06 21:41:00,44.0,29.3,30.28,NNE,22,5.8,5.8,56,0.00,CLR,SKC,0.00,WeatherDisplay:10.37,2013-02-07 02:41:00,
2013-02-06 21:46:00,44.0,29.3,30.28,NNE,22,5.8,5.8,56,0.00,CLR,SKC,0.00,WeatherDisplay:10.37,2013-02-07 02:46:00,
2013-02-06 21:51:00,44.0,29.3,30.28,NNE,22,6.0,6.0,56,0.00,CLR,SKC,0.00,WeatherDisplay:10.37,2013-02-07 02:51:00,
2013-02-06 21:56:00,44.0,28.9,30.28,NNE,22,6.9,6.9,55,0.00,CLR,SKC,0.00,WeatherDisplay:10.37,2013-02-07 02:56:00,
2013-02-06 22:01:00,44.0,28.9,30.27,NNE,22,8.1,8.1,55,0.00,CLR,SKC,0.00,WeatherDisplay:10.37,2013-02-07 03:01:00,
2013-02-06 22:06:00,44.0,28.9,30.27,NNE,22,5.0,5.0,55,0.00,CLR,SKC,0.00,WeatherDisplay:10.37,2013-02-07 03:06:00,
2013-02-06 22:11:00,44.0,28.9,30.27,NNE,22,6.0,6.0,55,0.00,CLR,SKC,0.00,WeatherDisplay:10.37,2013-02-07 03:11:00,
2013-02-06 22:16:00,44.0,28.9,30.27,NE,45,5.8,5.8,55,0.00,CLR,SKC,0.00,WeatherDisplay:10.37,2013-02-07 03:16:00,
2013-02-06 22:21:00,44.0,28.0,30.27,ENE,67,11.5,11.5,53,0.00,CLR,SKC,0.00,WeatherDisplay:10.37,2013-02-07 03:21:00,
2013-02-06 22:26:00,44.0,28.9,30.27,ENE,67,8.1,8.1,55,0.00,CLR,SKC,0.00,WeatherDisplay:10.37,2013-02-07 03:26:00,
2013-02-06 22:31:00,43.0,28.8,30.27,East,90,10.4,10.4,57,0.00,CLR,SKC,0.00,WeatherDisplay:10.37,2013-02-07 03:31:00,
2013-02-06 22:36:00,42.0,29.9,30.27,ENE,67,9.2,9.2,62,0.00,CLR,SKC,0.00,WeatherDisplay:10.37,2013-02-07 03:36:00,
2013-02-06 22:41:00,42.0,31.1,30.27,SE,135,5.8,5.8,65,0.00,CLR,SKC,0.00,WeatherDisplay:10.37,2013-02-07 03:41:00,
2013-02-06 22:46:00,42.0,32.2,30.27,ESE,112,8.1,8.1,68,0.00,CLR,SKC,0.00,WeatherDisplay:10.37,2013-02-07 03:46:00,
2013-02-06 22:51:00,42.0,32.9,30.28,ESE,112,6.9,6.9,70,0.00,CLR,SKC,0.00,WeatherDisplay:10.37,2013-02-07 03:51:00,
2013-02-06 22:56:00,42.0,33.6,30.28,East,90,5.8,5.8,72,0.00,CLR,SKC,0.00,WeatherDisplay:10.37,2013-02-07 03:56:00,
2013-02-06 23:01:00,41.0,33.7,30.28,SE,135,9.2,9.2,75,0.00,CLR,SKC,0.00,WeatherDisplay:10.37,2013-02-07 04:01:00,
2013-02-06 23:06:00,41.0,34.0,30.28,ESE,112,6.9,6.9,76,0.00,CLR,SKC,0.00,WeatherDisplay:10.37,2013-02-07 04:06:00,
2013-02-06 23:11:00,41.0,34.7,30.28,SE,135,9.2,9.2,78,0.00,CLR,SKC,0.00,WeatherDisplay:10.37,2013-02-07 04:11:00,
2013-02-06 23:16:00,41.0,34.7,30.28,ESE,112,5.8,5.8,78,0.00,CLR,SKC,0.00,WeatherDisplay:10.37,2013-02-07 04:16:00,
2013-02-06 23:21:00,41.0,34.7,30.29,SE,135,1.1,1.1,78,0.00,CLR,SKC,0.00,WeatherDisplay:10.37,2013-02-07 04:21:00,
2013-02-06 23:26:00,40.0,34.6,30.29,ESE,112,5.8,5.8,81,0.00,CLR,SKC,0.00,WeatherDisplay:10.37,2013-02-07 04:26:00,
2013-02-06 23:31:00,40.0,34.6,30.30,East,90,6.9,6.9,81,0.00,CLR,SKC,0.00,WeatherDisplay:10.37,2013-02-07 04:31:00,
2013-02-06 23:36:00,40.0,34.9,30.30,ESE,112,4.0,4.0,82,0.00,CLR,SKC,0.00,WeatherDisplay:10.37,2013-02-07 04:36:00,
2013-02-06 23:41:00,40.0,35.3,30.31,SE,135,4.6,4.6,83,0.00,CLR,SKC,0.00,WeatherDisplay:10.37,2013-02-07 04:41:00,
2013-02-06 23:46:00,40.0,35.3,30.31,ESE,112,3.5,3.5,83,0.00,CLR,SKC,0.00,WeatherDisplay:10.37,2013-02-07 04:46:00,
2013-02-06 23:51:00,39.0,34.9,30.33,ESE,112,2.3,2.3,85,0.00,CLR,SKC,0.00,WeatherDisplay:10.37,2013-02-07 04:51:00,
2013-02-06 23:56:00,39.0,34.9,30.33,ESE,112,3.5,3.5,85,0.00,CLR,SKC,0.00,WeatherDisplay:10.37,2013-02-07 04:56:00,